Location: Aragnouet
(42.7874°N, 0.2165°E)
Time: 20:01:09
(UTC+00:00)

Cosmos 1850 Rocket - Pass Details

Date: 09 April 2020
Orbit: 754 x 786 km, 74.0° (Epoch: 31 May)

Event Time Altitude Azimuth Distance (km) Brightness Sun altitude
Exits shadow 20:24:24 37° 142° (SE) 1,168 4.4 -19.4°
Maximum altitude 20:25:44 45° 103° (ESE) 1,026 4.2 -19.6°
Drops below altitude 10° 20:30:39 10° 32° (NNE) 2,286 6.5 -20.4°
Sets 20:33:06 0° 27° (NNE) 3,216 7.3 -20.8°
